Regional Weather Roundup
Issued by NWS Sterling, VA

Home | Current Version | Previous Version | Graphics & Text | Print | Product List | Glossary On
Versions: 1 2 3 4 5 6 7 8 9 10 11 12 13 14 15 16 17 18 19 20 21 22 23 24 25 26 27 28
000
ASUS41 KLWX 060110
RWRLWX

REGIONAL WEATHER ROUNDUP
NATIONAL WEATHER SERVICE BALTIMORE MD/WASHINGTON DC
800 PM EST MON DEC 05 2016

Note: "FAIR" indicates few or no clouds below 12,000 feet
with no significant weather and/or obstructions to visibility.
 TC=TEMPERATURE CELSIUS

 * =Non NWS site. Station does not report precipitation (e.g. rain,
    snow, etc.), thunder, or fog.

DCZ001-MDZ009-015-VAZ040>042-051-053>054-060200-
WASHINGTON METRO

CITY           SKY/WX    TMP DP  RH WIND       PRES   REMARKS
WASHINGTON NAT CLOUDY    50  36  58 N8        30.10R
DULLES         CLOUDY    47  31  53 N7        30.09R
ANDREWS AFB    CLOUDY    40  36  84 N3        30.08R
FT BELVOIR     CLOUDY    49  34  56 CALM      30.09R
QUANTICO       CLOUDY    45  40  82 NW6       30.10R
COLLEGE PARK*  CLOUDY    41  36  81 CALM      30.09R
LEESBURG*      CLOUDY    46  34  61 N3        30.11R
GAITHERSBURG*  PTCLDY    43  28  56 CALM      30.13R

$$

MDZ006>007-011-014-060200-
BALTIMORE METRO

CITY           SKY/WX    TMP DP  RH WIND       PRES   REMARKS
BWI AIRPORT    CLOUDY    45  33  63 N5        30.09R
MD SCIENCE CTR   N/A     49  30  48 MISG      30.09R
MARTIN STATE   CLEAR     46  39  76 CALM      30.11R
ANNAPOLIS      CLOUDY    47  40  76 N3        30.09R
FORT MEADE*    PTCLDY    39  34  81 CALM      30.11R

$$

MDZ012-015-019>023-060200-
MARYLAND EASTERN SHORE

CITY           SKY/WX    TMP DP  RH WIND       PRES   REMARKS
OCEAN CITY     PTCLDY    42  38  85 N7        30.07S
SALISBURY      PTCLDY    40  39  97 CALM      30.08R
BAY BRIDGE AP* CLOUDY    43  39  87 N3        30.09R
CAMBRIDGE*     CLOUDY    43  37  81 NE5       30.08R
EASTON*        CLEAR     43  37  81 CALM      30.13R

$$

MDZ017>025-060200-
SOUTHERN MARYLAND

CITY           SKY/WX    TMP DP  RH WIND       PRES   REMARKS
PATUXENT RIVER CLOUDY    40  38  93 CALM      30.08R
ST INIGOES     CLOUDY    41  40  96 CALM      30.08R
LEONARDTOWN*   CLOUDY    41  37  87 CALM      30.09R

$$

MDZ003>005-060200-
NORTH CENTRAL MARYLAND

CITY           SKY/WX    TMP DP  RH WIND       PRES   REMARKS
FREDERICK*     NOT AVBL
HAGERSTOWN APT PTCLDY    41  28  60 N8        30.10R
WESTMINSTER*   PTCLDY    39  30  70 N6        30.09R

$$

MDZ501>502-060200-
WESTERN MARYLAND

CITY           SKY/WX    TMP DP  RH WIND       PRES   REMARKS
OAKLAND*       PTCLDY    32  28  86 CALM      30.03F
CUMBERLAND*    NOT AVBL

$$

VAZ025>031-060200-
SHENANDOAH VALLEY

CITY           SKY/WX    TMP DP  RH WIND       PRES   REMARKS
WINCHESTER*    PTCLDY    41  30  65 NE3       30.10R
FRONT ROYAL*   FAIR      45  32  61 CALM      30.09R
LURAY*         FAIR      45  36  70 NE3       30.08R
NEW MARKET*    FAIR      40  33  78 CALM      30.07S
STAUNTON*      PTCLDY    42  33  70 CALM      30.08S
WAYNESBORO*    FAIR      44  33  64 E3        30.06S

$$

WVZ021-048>050-054>055-060200-
EASTERN WEST VIRGINIA PANHANDLE

CITY           SKY/WX    TMP DP  RH WIND       PRES   REMARKS
MARTINSBURG    PTCLDY    42  30  62 N5        30.10R
PETERSBURG*    PTCLDY    40  35  81 CALM      30.09S

$$

VAZ036>039-050-060200-
CENTRAL FOOTHILLS

CITY           SKY/WX    TMP DP  RH WIND       PRES   REMARKS
CHARLOTTESVILL MOCLDY    48  41  76 CALM      30.08R
CULPEPER*      CLOUDY    44  41  92 CALM      30.11R
ORANGE*          N/A     43  43 100 CALM      30.11R
GORDONSVILLE*  FAIR      42  41  97 CALM      30.09R
WARRENTON*     FAIR      39  35  83 CALM      30.09R

$$

VAZ055>057-060200-
NORTH AND CENTRAL PIEDMONT

CITY           SKY/WX    TMP DP  RH WIND       PRES   REMARKS
FREDERICKSBRG* CLOUDY    42  42 100 CALM      30.09R
STAFFORD*      CLOUDY    39  39 100 CALM      30.14R

$$

NCZ024-NYZ072-PAZ021-071-VAZ022-071-060200-
OTHER REGIONAL OBSERVATIONS

CITY           SKY/WX    TMP DP  RH WIND       PRES   REMARKS
NEW YORK CITY  PTCLDY    45  32  60 CALM      30.08R
PHILADELPHIA   MOCLDY    47  33  58 NW10      30.10R
PITTSBURGH     CLOUDY    36  29  75 NE6       30.08S
ROANOKE        CLOUDY    50  38  63 E6        30.05F
RICHMOND       CLOUDY    43  40  89 CALM      30.09R
RALEIGH        LGT RAIN  53  43  68 E7        30.07R

$$

ANZ530>537-060200-
MARINE OBSERVATIONS

STATION/POSITION TIME  TEMP    WIND        PRES
                       AIR SEA DIR/SP/G
                 (UTC) (F)     (DEG/KT/KT) (MB)
THOMAS PT LIGHT  0100   50 49  340/  8/  9   N/A
BALT KEY BRIDGE  0036   49     350/  9/ 11 1019.0R
COVE POINT       0036   48     350/  7/  8 1018.9R
LEWISETTA        0036   45 49  310/  3/  3 1018.2R
SOLOMONS ISLAND  0036   46 51  310/  2/  4   N/A
PINEY POINT      0036           CALM  /  1   N/A

$$





USA.gov is the U.S. government's official web portal to all federal, state and local government web resources and services.